Regional Weather Roundup
Issued by NWS Little Rock, AR

Home | Current Version | Previous Version | Graphics & Text | Print | Product List | Glossary On
Versions: 1 2 3 4 5 6 7 8 9 10 11 12 13 14 15 16 17 18 19 20 21 22 23 24 25 26 27 28 29 30 31 32 33 34 35 36 37 38 39 40 41 42 43 44 45 46 47 48 49 50
000
ASUS44 KLZK 211205
RWRLZK

WEATHER ROUNDUP FOR ARKANSAS
NATIONAL WEATHER SERVICE LITTLE ROCK AR
700 AM CDT THU AUG 21 2014

NOTE: "FAIR" INDICATES FEW OR NO CLOUDS BELOW 12,000 FEET WITH NO
SIGNIFICANT WEATHER AND/OR OBSTRUCTIONS TO VISIBILITY.

ARZ001-003-010-029-211300-
NORTHWEST ARKANSAS

CITY           SKY/WX    TMP DP  RH WIND       PRES   REMARKS
FAYETTEVILLE   CLEAR     74  70  87 SW5       30.05R
6HR MIN TEMP:  73; 6HR MAX TEMP:  77;

FORT SMITH     CLEAR     75  71  87 NE3       30.03R
6HR MIN TEMP:  74; 6HR MAX TEMP:  77;

HARRISON       CLEAR     73  71  93 SE9       30.07R
6HR MIN TEMP:  72; 6HR MAX TEMP:  76;

BENTONVILLE    CLEAR     75  70  83 S8        30.04S
6HR MIN TEMP:  73; 6HR MAX TEMP:  77;

ROGERS         CLEAR     75  69  81 S10       30.05R
6HR MIN TEMP:  74; 6HR MAX TEMP:  76;

SILOAM SPGS    CLEAR     73  64  73 S10       30.05R
6HR MIN TEMP:  73; 6HR MAX TEMP:  77;

HIGHFILL       CLEAR     73  69  87 S8        30.04R
6HR MIN TEMP:  72; 6HR MAX TEMP:  75;

SPRINGDALE     CLEAR     77  70  78 S9        30.06R
$$

ARZ004-005-016-211300-
NORTH CENTRAL ARKANSAS

CITY           SKY/WX    TMP DP  RH WIND       PRES   REMARKS
BATESVILLE     CLEAR     77  70  78 SW8       30.05S
6HR MIN TEMP:  77; 6HR MAX TEMP:  79;

FLIPPIN        CLEAR     72  66  83 CALM      30.05R
6HR MIN TEMP:  72; 6HR MAX TEMP:  79;

MTN HOME       CLEAR     74  71  91 S7        30.04S
6HR MIN TEMP:  72; 6HR MAX TEMP:  76;

$$

ARZ040-041-211300-
WEST CENTRAL ARKANSAS

CITY           SKY/WX    TMP DP  RH WIND       PRES   REMARKS
MENA           CLEAR     77  72  83 SW5       30.09R
MOUNT IDA      CLEAR     72  70  93 CALM      30.06R
6HR MIN TEMP:  72; 6HR MAX TEMP:  81;

$$

ARZ009-017-025-026-028-211300-
NORTHEAST ARKANSAS

CITY           SKY/WX    TMP DP  RH WIND       PRES   REMARKS
CORNING        FAIR      73  73 100 S6        30.05R
JONESBORO      CLEAR     75  71  87 S3        30.06R
6HR MIN TEMP:  75; 6HR MAX TEMP:  80;

NEWPORT        CLEAR     75  72  91 S9        30.07R
6HR MIN TEMP:  74; 6HR MAX TEMP:  78;

WALNUT RIDGE   CLEAR     73  70  88 S9        30.05R
6HR MIN TEMP:  73; 6HR MAX TEMP:  77;

BLYTHEVILLE    PTCLDY    76  73  91 SW7       30.08R
6HR MIN TEMP:  75; 6HR MAX TEMP:  78;

$$

ARZ022-023-033-042-044-211300-
CENTRAL ARKANSAS

CITY           SKY/WX    TMP DP  RH WIND       PRES   REMARKS
LITTLE ROCK    PTCLDY    74  69  85 SW8       30.08R
6HR MIN TEMP:  73; 6HR MAX TEMP:  78;

N LITTLE ROCK    N/A     74  72  92 S7        30.08R
6HR MIN TEMP:  74; 6HR MAX TEMP:  79;

JACKSONVILLE   CLEAR     74  71  91 S5        30.07R
6HR MIN TEMP:  74; 6HR MAX TEMP:  78;

SEARCY           N/A     73  72  97 CALM        N/A
6HR MIN TEMP:  73; 6HR MAX TEMP:  76;

HOT SPRINGS    CLOUDY    75  71  87 CALM      30.09R
6HR MIN TEMP:  75; 6HR MAX TEMP:  82;

RUSSELLVILLE   CLEAR     73  70  90 CALM      30.05R
6HR MIN TEMP:  73; 6HR MAX TEMP:  78;

CLINTON        FAIR      68  68 100 CALM      30.07S FOG
$$

ARZ036-211300-
EAST ARKANSAS

CITY           SKY/WX    TMP DP  RH WIND       PRES   REMARKS
WEST MEMPHIS   CLEAR     74  73  97 S5        30.08R
6HR MIN TEMP:  73; 6HR MAX TEMP:  77;

$$

ARZ050-053-066-070-073-211300-
SOUTHWEST ARKANSAS

CITY           SKY/WX    TMP DP  RH WIND       PRES   REMARKS
ARKADELPHIA    PTSUNNY   73  72  97 CALM      30.09R
6HR MIN TEMP:  72; 6HR MAX TEMP:  77;

CAMDEN         CLEAR     72  68  88 CALM      30.09R
TEXARKANA      PTCLDY    73  72  96 S6        30.07R
6HR MIN TEMP:  73; 6HR MAX TEMP:  77;

EL DORADO      PTCLDY    71  70  96 CALM      30.09R
6HR MIN TEMP:  71; 6HR MAX TEMP:  74;

DE QUEEN       CLEAR     71  70  96 CALM      30.05R
6HR MIN TEMP:  71; 6HR MAX TEMP:  79;

$$

ARZ056-057-069-211300-
SOUTHEAST ARKANSAS

CITY           SKY/WX    TMP DP  RH WIND       PRES   REMARKS
PINE BLUFF     CLEAR     73  70  90 SW7       30.10R
6HR MIN TEMP:  73; 6HR MAX TEMP:  76;

STUTTGART      CLEAR     73  70  88 S7        30.09R
6HR MIN TEMP:  73; 6HR MAX TEMP:  79;

MONTICELLO     CLEAR     74  71  91 S3        30.10R
6HR MIN TEMP:  74; 6HR MAX TEMP:  79;


$$




USA.gov is the U.S. government's official web portal to all federal, state and local government web resources and services.